FW3783 Clinton WA US current weather conditions

sailwx.info

Wind from 015

Air temperature 8.9° C
Dewpoint 8.4° C

Last reported at 2019-Nov-19 15:03 UTC.
Time now 2019-Nov-19 15:45 UTC

Location: N 47°59' W 122°29'.
View on Google Maps.

See reports from other nearby stations

  
Tides and Currents Weather Stations Pressure Air Temp Water Temp Dewpoint Dewpoint Depression Visibility Wind Speed Wind Dir Waves Ship Positions
date/time (UTC)wind fromknots sea level pressurealtimeterstation pressurevisibilityair tempwater tempwave heightnotes
2019-Nov-19 15:03 015 8.9
2019-Nov-19 14:43 263 8.9
2019-Nov-19 14:03 282 1 gusting 4 8.9
2019-Nov-19 13:33 286 0 gusting 2 8.9
2019-Nov-19 13:13 282 8.9
2019-Nov-19 13:03 283 0 gusting 1 8.9
2019-Nov-19 12:53 346 0 gusting 3 8.9
2019-Nov-19 12:43 290 8.9
2019-Nov-19 12:33 305 9.4
2019-Nov-19 12:23 306 0 gusting 3 9.4
2019-Nov-19 12:13 306 0 gusting 3 9.4
2019-Nov-19 11:43 308 9.4
2019-Nov-19 11:33 315 0 gusting 1 9.4
2019-Nov-19 11:23 281 0 gusting 2 9.4
2019-Nov-19 10:43 292 10.0
2019-Nov-19 10:33 289 0 gusting 2 10.0
2019-Nov-19 09:53 284 9.4
2019-Nov-19 09:43 290 9.4
2019-Nov-19 08:53 233 10.0
2019-Nov-19 08:33 237 10.0
2019-Nov-19 08:13 231 10.0
2019-Nov-19 08:03 233 10.0
2019-Nov-19 07:43 244 10.0
2019-Nov-19 07:33 232 10.0
2019-Nov-19 07:13 232 1 gusting 4 10.0
2019-Nov-19 07:03 238 1 gusting 5 10.6
2019-Nov-19 06:43 215 5 gusting 9 10.6
2019-Nov-19 06:23 190 6 gusting 9 10.6
2019-Nov-19 06:13 171 6 gusting 8 10.6
2019-Nov-19 06:03 153 0 gusting 3 10.6
2019-Nov-19 05:43 142 10.6
2019-Nov-19 05:33 131 10.6
2019-Nov-19 05:13 137 0 gusting 1 10.6
2019-Nov-19 04:53 150 1 gusting 3 10.6
2019-Nov-19 04:23 156 10.6
2019-Nov-19 04:03 148 3 gusting 5 10.6
2019-Nov-19 03:33 176 3 gusting 6 10.6
2019-Nov-19 03:13 161 2 gusting 4 10.0
2019-Nov-19 02:43 168 0 gusting 3 10.0
2019-Nov-19 02:23 127 0 gusting 2 10.0
2019-Nov-19 01:53 128 9.4
2019-Nov-19 01:43 127 9.4
2019-Nov-19 01:33 127 9.4
2019-Nov-19 01:23 127 9.4
2019-Nov-19 01:13 127 10.0
2019-Nov-19 01:03 129 10.0
2019-Nov-19 00:53 139 10.0
2019-Nov-19 00:43 032 10.0
2019-Nov-19 00:33 030 0 gusting 1 10.0
2019-Nov-19 00:23 041 0 gusting 3 10.0
2019-Nov-19 00:13 036 1 gusting 5 10.0
2019-Nov-18 23:53 038 3 gusting 6 10.0
2019-Nov-18 23:43 036 3 gusting 6 10.0
2019-Nov-18 23:33 039 2 gusting 8 10.0
2019-Nov-18 23:13 036 4 gusting 8 10.0
2019-Nov-18 22:43 037 3 gusting 11 10.0
2019-Nov-18 22:33 035 6 gusting 11 10.0
2019-Nov-18 22:03 041 2 gusting 6 10.0
2019-Nov-18 21:43 028 10.0
2019-Nov-18 21:23 043 10.0
2019-Nov-18 21:13 042 10.0
2019-Nov-18 20:53 114 10.0
2019-Nov-18 20:33 140 1 gusting 4 10.6
2019-Nov-18 20:13 133 0 gusting 6 10.6
2019-Nov-18 20:03 195 4 gusting 5 10.0
2019-Nov-18 19:53 293 10.0
2019-Nov-18 19:43 201 2 gusting 4 10.0
2019-Nov-18 19:33 194 3 gusting 6 10.0
2019-Nov-18 19:13 279 10.0
2019-Nov-18 19:03 026 2 gusting 4 10.0
2019-Nov-18 18:53 066 0 gusting 1 10.0
2019-Nov-18 18:43 165 10.0
2019-Nov-18 18:33 032 10.0
2019-Nov-18 17:33 326 9.4
2019-Nov-18 17:23 326 9.4
2019-Nov-18 16:43 307 9.4
2019-Nov-18 16:23 307 9.4
2019-Nov-18 16:13 292 9.4
2019-Nov-18 16:03 025 9.4
2019-Nov-18 15:53 103 8.9
2019-Nov-18 15:43 040 0 gusting 5 9.4
2019-Nov-18 15:33 305 9.4
2019-Nov-18 15:23 308 9.4
2019-Nov-18 15:03 239 0 gusting 1 9.4
2019-Nov-18 14:53 024 9.4
2019-Nov-18 14:33 026 1 gusting 2 9.4
2019-Nov-18 14:13 032 0 gusting 2 9.4
2019-Nov-18 14:03 035 1 gusting 2 9.4
2019-Nov-18 13:53 034 1 gusting 2 9.4
2019-Nov-18 13:33 352 0 gusting 0 9.4
2019-Nov-18 13:23 041 9.4
2019-Nov-18 13:13 041 9.4
2019-Nov-18 13:03 041 9.4
2019-Nov-18 12:53 041 8.9
2019-Nov-18 12:33 041 9.4
2019-Nov-18 12:23 041 8.9
2019-Nov-18 12:03 041 8.9
2019-Nov-18 11:43 041 9.4
2019-Nov-18 11:33 041 9.4
2019-Nov-18 11:23 041 8.9
2019-Nov-18 11:03 041 9.4
2019-Nov-18 10:53 041 9.4
2019-Nov-18 10:43 041 9.4
2019-Nov-18 10:33 041 9.4
2019-Nov-18 10:13 041 10.0
2019-Nov-18 09:43 041 10.0
2019-Nov-18 09:23 041 10.0
2019-Nov-18 09:03 041 10.0
2019-Nov-18 08:53 043 0 gusting 1 10.0
2019-Nov-18 08:43 044 0 gusting 0 10.0
2019-Nov-18 08:33 044 10.0
2019-Nov-18 08:23 044 10.0
2019-Nov-18 08:13 044 0 gusting 0 10.0
2019-Nov-18 08:03 044 10.0
2019-Nov-18 07:53 044 10.0
2019-Nov-18 07:43 044 10.0
2019-Nov-18 07:23 044 10.6
2019-Nov-18 07:13 044 10.6
2019-Nov-18 07:03 044 10.6
2019-Nov-18 06:43 044 10.6
2019-Nov-18 06:33 044 10.6
2019-Nov-18 06:03 049 10.6
2019-Nov-18 05:53 048 10.6
2019-Nov-18 05:23 048 10.6
2019-Nov-18 05:03 054 0 gusting 0 11.1
2019-Nov-18 04:53 055 0 gusting 1 11.1
2019-Nov-18 04:43 060 11.1
2019-Nov-18 04:33 039 0 gusting 1 11.1
2019-Nov-18 04:13 032 11.1
2019-Nov-18 03:53 040 11.1
2019-Nov-18 03:43 034 1 gusting 2 11.1
2019-Nov-18 03:13 034 0 gusting 0 11.1
2019-Nov-18 03:03 035 11.1
2019-Nov-18 02:53 034 0 gusting 1 11.1
2019-Nov-18 01:13 020 0 gusting 3 11.1
2019-Nov-18 01:03 039 11.1
2019-Nov-18 00:53 039 11.7
2019-Nov-18 00:43 038 11.7
2019-Nov-18 00:23 040 0 gusting 2 11.7
2019-Nov-18 00:13 002 12.2
2019-Nov-17 23:53 341 0 gusting 3 11.7
2019-Nov-17 23:43 022 11.7
2019-Nov-17 23:13 043 1 gusting 2 12.2
2019-Nov-17 23:03 032 2 gusting 3 12.2
2019-Nov-17 22:53 009 0 gusting 2 12.2
2019-Nov-17 22:43 296 1 gusting 4 12.2
2019-Nov-17 21:53 158 3 gusting 6 12.8
2019-Nov-17 21:43 171 4 gusting 6 12.8
2019-Nov-17 21:23 164 4 gusting 8 12.8
2019-Nov-17 21:13 159 4 gusting 6 12.8
2019-Nov-17 20:43 159 5 gusting 8 12.2
2019-Nov-17 20:13 161 6 gusting 11 12.2
2019-Nov-17 20:03 171 7 gusting 11 12.2
2019-Nov-17 19:43 166 7 gusting 12 12.2
2019-Nov-17 19:33 166 9 gusting 13 12.2
2019-Nov-17 19:23 160 8 gusting 13 12.2
2019-Nov-17 19:13 171 8 gusting 13 12.2
2019-Nov-17 19:03 157 10 gusting 14 12.2
2019-Nov-17 18:53 173 10 gusting 14 12.2
2019-Nov-17 18:23 158 10 gusting 14 12.2
2019-Nov-17 18:13 155 10 gusting 15 12.2
2019-Nov-17 18:03 164 12 gusting 19 12.2
2019-Nov-17 17:43 171 10 gusting 16 12.2
2019-Nov-17 17:33 146 11 gusting 14 12.2
2019-Nov-17 17:23 159 9 gusting 13 12.2
2019-Nov-17 17:13 151 10 gusting 14 12.2
2019-Nov-17 16:43 163 9 gusting 13 11.7
2019-Nov-17 16:23 163 8 gusting 13 11.7
2019-Nov-17 16:13 151 9 gusting 15 11.7
2019-Nov-17 16:03 157 9 gusting 16 12.2
2019-Nov-17 15:43 166 9 gusting 13 12.2
2019-Nov-17 15:13 145 6 gusting 11 12.2
2019-Nov-17 15:03 149 8 gusting 15 12.2